OBJECT B, 63292

Orbit data source: Space-Track

You're viewing an Uncataloged Satellite

Recently launched and/or uncataloged satellites may have evolving metadata. Metadata may include but not limited to: Owner, Maufacturer, Bus, Motor, and Mission.

OBJECT B, 63292 is a Chinese satellite in SSO that was launched on Mon, 17 Mar 2025 UTC via a GUSHENXING 1 launch vehicle from the Jiuquan Satellite Launch Center, China (JSC). Unknown objects in Earth's orbit typically refer to objects detected orbiting the Earth but have not yet been identified or cataloged. These objects could be anything from previously untracked satellites, spent rocket stages, debris from satellite collisions, or even natural meteoroids temporarily captured by Earth's gravity.

Loading next visibility...
Identifier
63292, 2025-055B
Orbit
SSO
Country
Flag of CNCN / PRC
Related business
None
Manufacturer
Unknown
Mission
Operational Commercial Meteo Radio Occ.
Bus & Motor
Unknown
Mass
Unknown
Launch date (UTC)
2025-03-17 (9 months ago)
Launch vehicle
GUSHENXING 1
Launch site
Jiuquan Satellite Launch Center, China (JSC)
Object type
Unknown
Shape & HBR
Box + 1 Pan, 0.7 m
Radar Cross Section
5.339 m², Medium (>0.1 m² and < 1m²)

Expand to show TLE details & history
Last TLE update: 17 hours ago

TLE from 17 hours ago
0 OBJECT B
1 63292U 25055B   25349.38984861  .00008965  00000-0  46593-3 0  9997
2 63292  97.6275 124.2347 0012717  77.2427 283.0226 15.16246730 41249
Epoch: 2025-12-15T09:21Z
TLE epoch observation values (Epoch: 2025-12-15T09:21:22.919Z)
Latitude
-0.00004°
Longitude
-100.3999°
Altitude
518.309 km
Speed
7.605 km/s
True Right ascension
08h 16m 56s
True Declination
0° 00' 00"
Sunlit
Object was in full shadow at epoch
Visualization orbit readout
Latitude
Unknown
Longitude
Unknown
Altitude
Unknown
Speed
Unknown
Apparent Right ascension
Unknown
Apparent Declination
Unknown
Sunlit
N/A
Visualization observer readout
Local Sidereal Time
00:58:37
Azimuth
Unknown
Elevation
Unknown
Doppler factor
Unknown
Orbital elements
Apogee altitude
522.942 km
Perigee altitude
505.412 km
Semi-major axis
6,892.314 km
Eccentricity
0.00127
Inclination
97.6275°
RAAN
124.2347°
Arg. of periapsis
77.2427°
True anomaly
282.88057°
Mean anomaly
283.0226°
Eccentric anomaly
282.95159°
Mean motion
3.79311 °/min
Orbital period
94.91 mins
BSTAR
0.00046593
Loading maneuver chart data...
Computing Atmospheric mass density...
Loading historical data...
Loading historical data...
Loading historical data...
Loading historical data...
Loading historical data...
Loading historical data...
Loading historical data...

Documentation

Showing up to 5 results
|